Regional Weather Roundup
Issued by NWS

Home | Current Version | Previous Version | Text Only | Print | Product List | Glossary On
Versions: 1 2 3 4 5 6 7 8 9 10 11 12 13 14 15 16 17 18 19 20 21 22 23 24 25 26 27 28 29 30 31 32 33 34 35 36 37 38 39 40 41 42 43 44 45 46 47 48 49 50
000
ASUS43 KMKX 300511
RWRWI

WISCONSIN REGIONAL WEATHER ROUNDUP
NATIONAL WEATHER SERVICE MILWAUKEE/SULLIVAN WI
1200 AM CDT SAT APR 30 2016

NOTE: "FAIR" INDICATES FEW OR NO CLOUDS BELOW 12,000 FEET WITH NO
SIGNIFICANT WEATHER AND/OR OBSTRUCTIONS TO VISIBILITY.

WIZ001-002-006>008-014>016-023>028-300600-
NORTHWEST WISCONSIN

CITY           SKY/WX    TMP DP  RH WIND       PRES   REMARKS
SUPERIOR ARPT  CLEAR     37  32  82 NE7       30.21F WCI  31
ASHLAND        CLEAR     32  30  92 NE6       30.22F WCI  26
HAYWARD        CLEAR     38  28  67 NE5       30.17F WCI  34
SIREN          CLEAR     43  30  60 NE6       30.18R
CUMBERLAND     CLEAR     41  30  65 NE5       30.15S
RICE LAKE      CLEAR     43  31  63 NE5       30.16S
CHETEK         CLEAR     45  32  60 NE5       30.14S
LADYSMITH      CLEAR     43  31  63 NE7       30.16S
EAU CLAIRE     PTCLDY    45  37  73 NE7       30.12R
MENOMONIE      CLOUDY    48  41  76 N6        30.13S
NEW RICHMOND   PTCLDY    45  33  63 NE6       30.14S
OSCEOLA        CLEAR     47  32  55 NE6       30.17S
$$

WIZ003>005-009-010-017-018-300600-
NORTH CENTRAL WISCONSIN

CITY           SKY/WX    TMP DP  RH WIND       PRES   REMARKS
MANITOWISH WTR CLEAR     38  30  71 NE6       30.16S WCI  34
ARBOR VITAE    CLEAR     43  30  60 NE7       30.15S
WOODRUFF       CLEAR     43  30  60 NE7       30.15S
RHINELANDER    CLEAR     38  31  76 E5        30.15F WCI  34
EAGLE RIVER    CLEAR     39  27  61 NE5       30.16S
LAND O LAKES   CLEAR     39  28  64 NE5       30.17F
PHILLIPS       CLEAR     40  30  67 NE6       30.14F
TOMAHAWK       CLEAR     38  34  84 CALM      30.15S
MEDFORD        CLEAR     37  34  89 NE3       30.13R
MERRILL        CLEAR     33  32  95 CALM      30.15R
$$

WIZ029-030-035-036-043>047-300600-
CENTRAL WISCONSIN

CITY           SKY/WX    TMP DP  RH WIND       PRES   REMARKS
WAUSAU         CLEAR     43  34  70 E5        30.13S
MOSINEE        CLEAR     41  32  70 E6        30.14S
MARSHFIELD     CLEAR     45  36  70 E3        30.12S
STEVENS POINT  CLEAR     36  32  86 CALM      30.14S
WAUPACA        CLEAR     45  33  64 E3        30.15S
WAUTOMA        CLOUDY    37  33  85 CALM      30.15S
WISC RAPIDS    CLEAR     43  32  65 E5        30.14S
CAMP DOUGLAS   CLEAR     37  37 100 E1        30.11S
$$

WIZ011>013-019>022-031-037>040-048>050-300600-
NORTHEAST WISCONSIN

CITY           SKY/WX    TMP DP  RH WIND       PRES   REMARKS
ANTIGO         CLEAR     36  34  92 CALM      30.15R
SHAWANO        CLEAR     43  35  75 CALM      30.15F
OCONTO         CLOUDY    37  33  88 CALM      30.16S
STURGEON BAY   CLEAR     43  27  52 NE3       30.18S
GREEN BAY      CLEAR     43  33  68 CALM      30.15F
MANITOWOC      CLEAR     38  31  76 SW5       30.16S WCI  34
APPLETON       CLEAR     41  30  65 E3        30.14R
CLINTONVILLE   CLEAR     41  32  70 CALM      30.15R
OSHKOSH        CLEAR     39  29  67 NE3       30.14S
$$

WIZ032>034-041-042-053>061-300600-
SOUTHWEST WISCONSIN

CITY           SKY/WX    TMP DP  RH WIND       PRES   REMARKS
LA CROSSE      CLOUDY    42  38  85 E3        30.10S
SPARTA         CLOUDY    37  36  97 CALM      30.12S
VIROQUA        CLOUDY    41  37  84 NE5       30.08F
BOSCOBEL       CLOUDY    40  38  93 CALM      30.10S
PRAIRIE DU CHI CLOUDY    42  38  83 CALM      30.10R
PLATTEVILLE    CLOUDY    42  39  91 NE7       30.07F
$$

WIZ056-057-062-063-064-067-068-300600-
SOUTH CENTRAL WISCONSIN

CITY           SKY/WX    TMP DP  RH WIND       PRES   REMARKS
REEDSBURG      CLOUDY    41  36  81 CALM      30.11S
BARABOO/DELLS  CLOUDY    40  34  79 E3        30.11F
LONE ROCK      CLOUDY    41  38  89 E7        30.10F
MINERAL POINT  CLOUDY    43  39  87 E3        30.08F
MADISON        CLOUDY    40  34  79 E7        30.10F
MIDDLETON      CLOUDY    45  37  73 E8        30.09F
WATERTOWN      CLOUDY    40  36  87 E5        30.13R
MONROE         CLOUDY    41  37  87 E8        30.08F
JANESVILLE     CLOUDY    43  41  93 E8        30.09F
$$

WIZ051-052-058>065-066-070>072-300600-
SOUTHEAST WISCONSIN

CITY           SKY/WX    TMP DP  RH WIND       PRES   REMARKS
MILWAUKEE      MOCLDY    43  33  68 CALM      30.14S
WAUKESHA       CLOUDY    37  32  81 E5        30.14S WCI  34
MILWAUKEE/TIMM PTCLDY    41  30  65 CALM      30.15R
RACINE         CLOUDY    43  34  70 NE7       30.14F
BURLINGTON     CLOUDY    40  35  80 NE3       30.12F
KENOSHA        CLOUDY    43  35  73 NE8       30.12F
FOND DU LAC    CLEAR     40  29  64 SE6       30.15R
SHEBOYGAN      CLEAR     36  29  75 N3        30.15S
WEST BEND      CLEAR     36  32  87 CALM      30.14S
JUNEAU         CLEAR     39  33  79 E3        30.15R
$$

LSZ147-162-300600-
LAKE SUPERIOR

STATION/POSITION TIME  TEMP    WIND        PRES    WAVE
                       AIR SEA DIR/SP/G            HT/PER
                 (UTC) (F)     (DEG/KT/KT) (MB)    (FT/S)
W MID LAKE BUOY  0450   39 36   30/ 10/ 10 1025.0R   1
DEVILS ISLAND    0500   39      60/  6/  6 1024.5F
SAXON HARBOR     0400   33     210/  2/  3 1023.0S
$$

LMZ867-665-643>646-300600-
LAKE MICHIGAN

STATION/POSITION TIME  TEMP    WIND        PRES    WAVE
                       AIR SEA DIR/SP/G            HT/PER
                 (UTC) (F)     (DEG/KT/KT) (MB)    (FT/S)
CHAMBERS ISLAND  0400   39      CALM  /  2 1021.3F
N MID LAKE BUOY  0450   41 38   80/ 10/ 12 1021.6S   0
NORTHPORT PIER   0400   42     290/  2/  8 1021.3F
ALGOMA LAKESHORE 0400             CALM       N/A
KEWAUNEE LAKESHO 0400   42     280/  3/  3 1020.3
SHEBOYGAN LAKESH 0500   43     350/  5/  6 1021.8F
PORT WASHINGTON  0400   42     340/  2/  2 1021.7S
S MID LAKE BUOY  0450   41 40   60/  8/ 10 1020.6F   1/ 3
KENOSHA   LAKESH 0500   42      40/  9/ 10 1020.0F
$$

TC  - TEMPERATURE IN CELSIUS
VSB - VISIBILITY IN STATUTE MILES
WCI - WIND CHILL INDEX
HX  - HEAT INDEX





USA.gov is the U.S. government's official web portal to all federal, state and local government web resources and services.